Key West, FL

7:34 AM EST on December 04, 2016 (GMT -0500)
Key West International

Weather History for KEYW - August, 2013

Change the Weather History Date:

Wednesday, August 7, 2013

  Actual Average Record
Temperature  
Mean Temperature 84 °F 85 °F  
Max Temperature 88 °F 90 °F 95 °F (1957)
Min Temperature 80 °F 80 °F 70 °F (1920)
Degree Days  
Heating Degree Days 0 0  
Month to date heating degree days 0 0  
Since 1 June heating degree days 0 0  
Since 1 July heating degree days 0 0  
Cooling Degree Days 19 20  
Month to date cooling degree days 137 140  
Year to date cooling degree days 2880 2725  
Since 1 June cooling degree days 1251 1295  
Growing Degree Days 34 (Base 50)    
Moisture  
Dew Point 75 °F    
Average Humidity 77    
Maximum Humidity 85    
Minimum Humidity 68    
Precipitation  
Precipitation T in 0.16 in 2.28 in (1980)
Month to date precipitation 0.11 1.04  
Year to date precipitation 31.24 19.33  
Snow  
Snow 0.00 in - - ()
Month to date snowfall 0.0  
Since 1 June snowfall 0.0  
Since 1 July snowfall 0.0  
Snow Depth 0.00 in    
Sea Level Pressure  
Sea Level Pressure 29.93 in    
Wind  
Wind Speed 7 mph (ESE)    
Max Wind Speed 20 mph    
Max Gust Speed 24 mph    
Visibility 10 miles    
Events Rain    
T = Trace of Precipitation, MM = Missing Value Source: NWS Daily Summary

Daily Weather History Graph

Daily Weather History Graph

Search for Another Location

Airport or City:

Trip Planner

Search our weather history database for the weather conditions in past years. The results will help you decide how hot, cold, wet, or windy it might be!

Date:

Astronomy

Aug. 07, 2013 Rise Set
Actual Time 6:58 AM EDT 8:06 PM EDT
Civil Twilight 6:34 AM EDT 8:31 PM EDT
Nautical Twilight 6:05 AM EDT 8:59 PM EDT
Astronomical Twilight 5:35 AM EDT 9:28 PM EDT
Moon 7:34 AM EDT (8/7) 8:28 PM EDT (8/7)
Length of Visible Light 13h 56m
Length of Day
13h 08m
New Moon, 1% of the Moon is Illuminated
Aug 7
New Moon
Aug 14
First Quarter
Aug 20
Full
Aug 28
Last Quarter
Sep 5
New

Hourly Weather History & Observations

Time (EDT) Temp. Heat Index Dew Point Humidity Pressure Visibility Wind Dir Wind Speed Gust Speed Precip Events Conditions
12:53 AM 82.0 °F 89.4 °F 75.9 °F 82% 29.96 in 10.0 mi North 3.5 mph - N/A   Clear
1:53 AM 81.0 °F 87.3 °F 75.9 °F 85% 29.94 in 10.0 mi Calm Calm - N/A   Clear
2:53 AM 81.0 °F 87.3 °F 75.9 °F 85% 29.93 in 10.0 mi Calm Calm - N/A   Scattered Clouds
3:00 AM 80.6 °F 86.2 °F 75.2 °F 84% 29.93 in 10.0 mi Calm Calm - N/A   Mostly Cloudy
3:08 AM 80.6 °F 86.2 °F 75.2 °F 84% 29.93 in 10.0 mi Calm Calm - N/A   Scattered Clouds
3:53 AM 81.0 °F 87.3 °F 75.9 °F 85% 29.92 in 10.0 mi Calm Calm - N/A   Clear
4:53 AM 81.0 °F 87.3 °F 75.9 °F 85% 29.91 in 10.0 mi Calm Calm - N/A   Clear
5:53 AM 81.0 °F 87.3 °F 75.9 °F 85% 29.91 in 10.0 mi ENE 3.5 mph - N/A   Clear
6:53 AM 80.1 °F 85.4 °F 75.9 °F 87% 29.92 in 10.0 mi NNE 3.5 mph - N/A   Clear
7:53 AM 82.9 °F 91.8 °F 77.0 °F 82% 29.94 in 10.0 mi NE 4.6 mph - N/A   Clear
8:53 AM 84.0 °F 92.6 °F 75.9 °F 76% 29.95 in 10.0 mi ESE 4.6 mph - N/A   Scattered Clouds
9:53 AM 84.9 °F 95.3 °F 77.0 °F 77% 29.96 in 10.0 mi SE 8.1 mph - N/A   Partly Cloudy
10:53 AM 86.0 °F 96.0 °F 75.9 °F 72% 29.96 in 10.0 mi SE 6.9 mph - N/A   Clear
11:53 AM 86.0 °F 96.9 °F 77.0 °F 74% 29.96 in 10.0 mi SSE 8.1 mph - N/A   Partly Cloudy
12:53 PM 86.0 °F 95.1 °F 75.0 °F 70% 29.95 in 10.0 mi SSE 9.2 mph - N/A   Clear
1:53 PM 87.1 °F 97.3 °F 75.9 °F 69% 29.94 in 8.0 mi SSE 10.4 mph - N/A   Partly Cloudy
2:53 PM 86.0 °F 95.1 °F 75.0 °F 70% 29.93 in 9.0 mi SSE 11.5 mph - N/A   Partly Cloudy
3:53 PM 87.1 °F 97.3 °F 75.9 °F 69% 29.92 in 10.0 mi SE 9.2 mph - N/A   Partly Cloudy
4:53 PM 84.9 °F 92.1 °F 73.9 °F 69% 29.91 in 10.0 mi ESE 6.9 mph - N/A   Clear
5:53 PM 84.9 °F 92.1 °F 73.9 °F 69% 29.91 in 10.0 mi SSE 6.9 mph - N/A   Partly Cloudy
6:53 PM 84.0 °F 91.9 °F 75.0 °F 74% 29.91 in 10.0 mi ESE 10.4 mph - N/A   Partly Cloudy
7:53 PM 82.9 °F 89.4 °F 73.9 °F 74% 29.91 in 10.0 mi East 8.1 mph - N/A   Partly Cloudy
8:53 PM 82.9 °F 88.8 °F 73.0 °F 72% 29.93 in 10.0 mi East 10.4 mph - N/A   Clear
9:53 PM 84.0 °F 91.9 °F 75.0 °F 74% 29.94 in 10.0 mi ESE 10.4 mph - N/A   Partly Cloudy
10:53 PM 82.9 °F 90.2 °F 75.0 °F 77% 29.95 in 10.0 mi ESE 12.7 mph - 0.00 in Rain Rain
11:53 PM 82.0 °F 88.6 °F 75.0 °F 79% 29.94 in 10.0 mi ESE 10.4 mph - 0.00 in   Partly Cloudy